Regional Weather Roundup
Issued by NWS

Home | Current Version | Previous Version | Text Only | Print | Product List | Glossary On
Versions: 1 2 3 4 5 6 7 8 9 10 11 12 13 14 15 16 17 18 19 20 21 22 23 24 25 26 27 28 29 30 31 32 33 34 35 36 37 38 39 40 41 42 43 44 45 46 47 48 49 50
000
ASUS43 KFSD 280510
RWRSD

WEATHER ROUNDUP FOR SOUTH DAKOTA
NATIONAL WEATHER SERVICE SIOUX FALLS SD
1100 PM CST TUE JAN 27 2015

NOTE: "FAIR" INDICATES FEW OR NO CLOUDS BELOW 12,000 FEET WITH NO
SIGNIFICANT WEATHER AND/OR OBSTRUCTIONS TO VISIBILITY.


SDZ001>005-009-010-012>017-280600-
NORTHWEST AND NORTH CENTRAL SOUTH DAKOTA

CITY           SKY/WX    TMP DP  RH WIND       PRES   REMARKS
BUFFALO          N/A     46  31  55 W5        29.73F
FAITH            N/A     47  31  53 S10       29.77F
MOBRIDGE       MOCLDY    38  33  82 SE9       29.78F
$$

SDZ012>016-024>037-041>051-057-063-072>074-280600-
SOUTHWEST AND SOUTH CENTRAL SOUTH DAKOTA

CITY           SKY/WX    TMP DP  RH WIND       PRES   REMARKS
RAPID CTY ARPT MOCLDY    46  28  49 W10       29.80F
PIERRE         CLOUDY    38  34  85 E7        29.79F
CUSTER         PTCLDY    47  25  42 W10G20    29.91F
ELLSWORTH AFB  CLEAR     53  29  40 W12       29.80F
PHILIP         CLOUDY    43  30  60 W5        29.78F
PINE RIDGE     MOCLDY    30  25  81 E3        29.88F
WINNER         FAIR      50  35  56 S9        29.81F
$$

SDZ004>011-016>023-039-040-280600-
NORTHEAST SOUTH DAKOTA

CITY           SKY/WX    TMP DP  RH WIND       PRES   REMARKS
ABERDEEN       PTCLDY    34  31  88 S8        29.86F WCI  27
WATERTOWN      CLEAR     34  32  92 S14       29.88F WCI  25
SISSETON         N/A     32  32 100 S14       29.91F WCI  22
$$

SDZ017-020-022-023-036>040-048>070-280600-
SOUTHEAST SOUTH DAKOTA

CITY           SKY/WX    TMP DP  RH WIND       PRES   REMARKS
SIOUX FALLS    CLEAR     36  31  82 S10G20    29.94F
HURON          CLEAR     35  32  88 S14       29.85F WCI  26
CHAMBERLAIN    MOCLDY    35  32  89 E6        29.83S WCI  30
MITCHELL       CLEAR     37  33  85 S16       29.88F
YANKTON        CLEAR     37  30  75 SE10      29.93F
$$

ABBREVIATIONS USED IN REMARKS
   TC - TEMPERATURE IN CELSIUS
  WCI - WIND CHILL INDEX
   HX - HEAT INDEX
  VSB - VISIBILITY




USA.gov is the U.S. government's official web portal to all federal, state and local government web resources and services.